| time (UTC) | temp F | wind direction | speed MPH | gust MPH | rain 1hr in | rain 24hr in | rain mn in | humidity % | barometer mb |
| 20260509224217 | 82 | 32 | 0.0 | 2.0 | 0.00 | 0.00 | 0.00 | 75 | 1007.0 |
| 20260509223718 | 83 | 0 | 0.0 | 2.0 | 0.00 | 0.00 | 0.00 | 75 | 1007.0 |
| 20260509223218 | 83 | 339 | 1.0 | 3.0 | 0.00 | 0.00 | 0.00 | 73 | 1007.0 |
| 20260509222719 | 83 | 240 | 2.0 | 4.0 | 0.00 | 0.00 | 0.00 | 73 | 1006.9 |
| 20260509222217 | 84 | 261 | 2.0 | 4.0 | 0.00 | 0.00 | 0.00 | 72 | 1006.8 |
| 20260509221718 | 85 | 254 | 2.0 | 5.0 | 0.00 | 0.00 | 0.00 | 71 | 1006.6 |
| 20260509221218 | 86 | 216 | 1.0 | 5.0 | 0.00 | 0.00 | 0.00 | 70 | 1006.6 |
| 20260509215715 | 88 | 0 | 1.0 | 2.0 | 0.00 | 0.00 | 0.00 | 65 | 1006.3 |
| 20260509215214 | 89 | 0 | 1.0 | 2.0 | 0.00 | 0.00 | 0.00 | 64 | 1006.3 |
| 20260509214713 | 89 | 265 | 1.0 | 5.0 | 0.00 | 0.00 | 0.00 | 61 | 1006.2 |
| 20260509214213 | 89 | 113 | 1.0 | 5.0 | 0.00 | 0.00 | 0.00 | 58 | 1006.3 |
| 20260509213210 | 90 | 261 | 2.0 | 4.0 | 0.00 | 0.00 | 0.00 | 59 | 1006.3 |
| 20260509212711 | 90 | 252 | 1.0 | 4.0 | 0.00 | 0.00 | 0.00 | 59 | 1006.3 |
| 20260509212209 | 90 | 0 | 1.0 | 3.0 | 0.00 | 0.00 | 0.00 | 59 | 1006.4 |
| 20260509211709 | 90 | 217 | 1.0 | 3.0 | 0.00 | 0.00 | 0.00 | 58 | 1006.4 |
| 20260509211210 | 91 | 286 | 2.0 | 5.0 | 0.00 | 0.00 | 0.00 | 57 | 1006.3 |
| 20260509210710 | 91 | 57 | 2.0 | 5.0 | 0.00 | 0.00 | 0.00 | 55 | 1006.3 |
| 20260509210211 | 91 | 263 | 2.0 | 5.0 | 0.00 | 0.00 | 0.00 | 57 | 1006.3 |
| 20260509205709 | 91 | 257 | 2.0 | 5.0 | 0.00 | 0.00 | 0.00 | 55 | 1006.3 |
| 20260509205210 | 91 | 275 | 2.0 | 4.0 | 0.00 | 0.00 | 0.00 | 58 | 1006.3 |
| 20260509204711 | 91 | 87 | 2.0 | 6.0 | 0.00 | 0.00 | 0.00 | 55 | 1006.4 |
| 20260509204207 | 91 | 52 | 3.0 | 6.0 | 0.00 | 0.00 | 0.00 | 53 | 1006.7 |
| 20260509203705 | 92 | 244 | 2.0 | 4.0 | 0.00 | 0.00 | 0.00 | 56 | 1006.7 |
| 20260509203205 | 91 | 239 | 2.0 | 4.0 | 0.00 | 0.00 | 0.00 | 55 | 1006.7 |
| 20260509202704 | 91 | 82 | 2.0 | 5.0 | 0.00 | 0.00 | 0.00 | 53 | 1006.8 |
| 20260509202205 | 91 | 208 | 2.0 | 6.0 | 0.00 | 0.00 | 0.00 | 57 | 1007.0 |
| 20260509201702 | 90 | 241 | 2.0 | 6.0 | 0.00 | 0.00 | 0.00 | 58 | 1007.1 |
| 20260509201202 | 90 | 278 | 2.0 | 6.0 | 0.00 | 0.00 | 0.00 | 59 | 1007.2 |
| 20260509200701 | 90 | 249 | 3.0 | 6.0 | 0.00 | 0.00 | 0.00 | 61 | 1007.4 |
| 20260509195201 | 90 | 210 | 2.0 | 7.0 | 0.00 | 0.00 | 0.00 | 60 | 1007.4 |
| 20260509194703 | 89 | 237 | 3.0 | 7.0 | 0.00 | 0.00 | 0.00 | 60 | 1007.4 |
| 20260509194202 | 89 | 257 | 2.0 | 5.0 | 0.00 | 0.00 | 0.00 | 61 | 1007.4 |
| 20260509193702 | 88 | 193 | 2.0 | 6.0 | 0.00 | 0.00 | 0.00 | 62 | 1007.5 |
| 20260509193201 | 88 | 238 | 2.0 | 6.0 | 0.00 | 0.00 | 0.00 | 61 | 1007.5 |
| 20260509192702 | 87 | 28 | 2.0 | 4.0 | 0.00 | 0.00 | 0.00 | 62 | 1007.6 |
| 20260509192203 | 87 | 261 | 2.0 | 4.0 | 0.00 | 0.00 | 0.00 | 67 | 1007.6 |
| 20260509191702 | 88 | 269 | 2.0 | 4.0 | 0.00 | 0.00 | 0.00 | 64 | 1007.6 |
| 20260509191201 | 88 | 227 | 2.0 | 4.0 | 0.00 | 0.00 | 0.00 | 65 | 1007.7 |
| 20260509190659 | 88 | 239 | 2.0 | 4.0 | 0.00 | 0.00 | 0.00 | 64 | 1007.8 |
| 20260509190156 | 88 | 7 | 2.0 | 6.0 | 0.00 | 0.00 | 0.00 | 63 | 1007.9 |
| 20260509185153 | 87 | 13 | 2.0 | 4.0 | 0.00 | 0.00 | 0.00 | 65 | 1008.1 |
| 20260509184653 | 86 | 228 | 2.0 | 4.0 | 0.00 | 0.00 | 0.00 | 67 | 1008.3 |
| 20260509184154 | 87 | 306 | 2.0 | 5.0 | 0.00 | 0.00 | 0.00 | 67 | 1008.4 |
| 20260509182154 | 87 | 130 | 2.0 | 5.0 | 0.00 | 0.00 | 0.00 | 66 | 1008.5 |
| 20260509181653 | 86 | 325 | 2.0 | 5.0 | 0.00 | 0.00 | 0.00 | 69 | 1008.8 |
| 20260509181154 | 85 | 0 | 1.0 | 3.0 | 0.00 | 0.00 | 0.00 | 71 | 1008.9 |
| 20260509180654 | 85 | 0 | 1.0 | 3.0 | 0.00 | 0.00 | 0.00 | 69 | 1008.9 |
| 20260509180154 | 84 | 291 | 1.0 | 3.0 | 0.00 | 0.00 | 0.00 | 71 | 1009.1 |
| 20260509173152 | 85 | 242 | 2.0 | 6.0 | 0.00 | 0.00 | 0.00 | 70 | 1009.2 |
| 20260509172650 | 84 | 281 | 2.0 | 5.0 | 0.00 | 0.00 | 0.00 | 71 | 1009.2 |
| 20260509172151 | 84 | 0 | 2.0 | 5.0 | 0.00 | 0.00 | 0.00 | 73 | 1009.3 |
| 20260509171649 | 85 | 263 | 2.0 | 5.0 | 0.00 | 0.00 | 0.00 | 73 | 1009.1 |
| 20260509171148 | 84 | 302 | 2.0 | 5.0 | 0.00 | 0.00 | 0.00 | 73 | 1009.1 |
| 20260509170649 | 83 | 248 | 2.0 | 6.0 | 0.00 | 0.00 | 0.00 | 74 | 1009.2 |
| 20260509170149 | 83 | 276 | 2.0 | 6.0 | 0.00 | 0.00 | 0.00 | 76 | 1009.4 |
| 20260509165648 | 83 | 264 | 2.0 | 6.0 | 0.00 | 0.00 | 0.00 | 76 | 1009.3 |
| 20260509165149 | 83 | 196 | 2.0 | 6.0 | 0.00 | 0.00 | 0.00 | 76 | 1009.4 |
| 20260509164649 | 82 | 280 | 2.0 | 6.0 | 0.00 | 0.00 | 0.00 | 78 | 1009.5 |
| 20260509164149 | 82 | 284 | 2.0 | 5.0 | 0.00 | 0.00 | 0.00 | 80 | 1009.4 |
| 20260509163649 | 83 | 274 | 2.0 | 6.0 | 0.00 | 0.00 | 0.00 | 78 | 1009.4 |
| 20260509163150 | 82 | 173 | 2.0 | 7.0 | 0.00 | 0.00 | 0.00 | 80 | 1009.5 |
| 20260509161649 | 81 | 260 | 2.0 | 4.0 | 0.00 | 0.00 | 0.00 | 82 | 1009.8 |
| 20260509161145 | 80 | 110 | 2.0 | 4.0 | 0.00 | 0.00 | 0.00 | 83 | 1009.8 |
| 20260509155642 | 78 | 200 | 2.0 | 5.0 | 0.00 | 0.00 | 0.00 | 88 | 1010.0 |
| 20260509155144 | 77 | 122 | 1.0 | 4.0 | 0.00 | 0.00 | 0.00 | 88 | 1010.0 |
| 20260509154643 | 76 | 127 | 1.0 | 4.0 | 0.00 | 0.00 | 0.00 | 91 | 1010.1 |
| 20260509154143 | 76 | 101 | 1.0 | 3.0 | 0.00 | 0.00 | 0.00 | 93 | 1010.1 |
| 20260509153644 | 75 | 78 | 2.0 | 4.0 | 0.00 | 0.00 | 0.00 | 93 | 1010.2 |
| 20260509153144 | 75 | 106 | 2.0 | 4.0 | 0.00 | 0.00 | 0.00 | 95 | 1010.2 |
| 20260509152644 | 75 | 96 | 2.0 | 4.0 | 0.00 | 0.00 | 0.00 | 95 | 1010.1 |
| 20260509152144 | 75 | 117 | 2.0 | 3.0 | 0.00 | 0.00 | 0.00 | 96 | 1010.1 |
| 20260509150644 | 74 | 101 | 1.0 | 3.0 | 0.00 | 0.00 | 0.00 | 97 | 1010.4 |
| 20260509150144 | 74 | 0 | 1.0 | 3.0 | 0.00 | 0.00 | 0.00 | 97 | 1010.5 |
| 20260509145645 | 74 | 153 | 2.0 | 3.0 | 0.00 | 0.00 | 0.00 | 97 | 1010.6 |
| 20260509145143 | 74 | 244 | 1.0 | 2.0 | 0.00 | 0.00 | 0.00 | 97 | 1010.7 |
| 20260509144642 | 74 | 257 | 1.0 | 2.0 | 0.00 | 0.00 | 0.00 | 97 | 1010.5 |
| 20260509144142 | 74 | 201 | 0.0 | 2.0 | 0.00 | 0.00 | 0.00 | 98 | 1010.6 |
| 20260509143642 | 74 | 0 | 0.0 | 1.0 | 0.00 | 0.00 | 0.00 | 98 | 1010.6 |
| 20260509143143 | 74 | 216 | 0.0 | 1.0 | 0.00 | 0.00 | 0.00 | 97 | 1010.7 |
| 20260509142643 | 74 | 0 | 0.0 | 1.0 | 0.00 | 0.00 | 0.00 | 97 | 1010.7 |
| 20260509142142 | 74 | 160 | 0.0 | 1.0 | 0.00 | 0.00 | 0.00 | 97 | 1010.5 |
| 20260509141642 | 74 | 0 | 0.0 | 1.0 | 0.00 | 0.00 | 0.00 | 97 | 1010.5 |
| 20260509141143 | 73 | 0 | 0.0 | 2.0 | 0.00 | 0.00 | 0.00 | 97 | 1010.4 |
| 20260509140629 | 74 | 17 | 1.0 | 2.0 | 0.00 | 0.00 | 0.00 | 97 | 1010.4 |
| 20260509140129 | 73 | 124 | 1.0 | 2.0 | 0.00 | 0.00 | 0.00 | 97 | 1010.2 |
| 20260509135630 | 73 | 48 | 1.0 | 2.0 | 0.00 | 0.00 | 0.00 | 97 | 1010.2 |
| 20260509135128 | 73 | 0 | 0.0 | 2.0 | 0.00 | 0.00 | 0.00 | 97 | 1010.3 |
| 20260509134630 | 73 | 0 | 0.0 | 1.0 | 0.00 | 0.00 | 0.00 | 97 | 1010.4 |
| 20260509134129 | 73 | 0 | 1.0 | 2.0 | 0.00 | 0.00 | 0.00 | 97 | 1010.4 |
| 20260509133629 | 73 | 104 | 1.0 | 2.0 | 0.00 | 0.00 | 0.00 | 97 | 1010.6 |
| 20260509133130 | 73 | 59 | 1.0 | 2.0 | 0.00 | 0.00 | 0.00 | 97 | 1010.4 |
| 20260509132630 | 73 | 86 | 0.0 | 2.0 | 0.00 | 0.00 | 0.00 | 97 | 1010.5 |
| 20260509132129 | 73 | 353 | 1.0 | 2.0 | 0.00 | 0.00 | 0.00 | 97 | 1010.6 |
| 20260509131615 | 73 | 62 | 1.0 | 2.0 | 0.00 | 0.00 | 0.00 | 97 | 1010.6 |
| 20260509131115 | 73 | 127 | 1.0 | 2.0 | 0.00 | 0.00 | 0.00 | 97 | 1010.7 |
| 20260509130600 | 73 | 63 | 1.0 | 2.0 | 0.00 | 0.00 | 0.00 | 97 | 1010.5 |
| 20260509130100 | 73 | 93 | 1.0 | 2.0 | 0.00 | 0.00 | 0.00 | 97 | 1010.5 |
| 20260509125600 | 73 | 101 | 1.0 | 2.0 | 0.00 | 0.00 | 0.00 | 97 | 1010.4 |
| 20260509124600 | 73 | 1 | 0.0 | 2.0 | 0.00 | 0.00 | 0.00 | 97 | 1010.3 |
| 20260509124100 | 73 | 0 | 0.0 | 1.0 | 0.00 | 0.00 | 0.00 | 97 | 1010.2 |
| 20260509123545 | 73 | 0 | 1.0 | 2.0 | 0.00 | 0.00 | 0.00 | 97 | 1010.3 |
| 20260509123046 | 73 | 64 | 1.0 | 2.0 | 0.00 | 0.00 | 0.00 | 97 | 1010.3 |
| 20260509122545 | 73 | 36 | 1.0 | 2.0 | 0.00 | 0.00 | 0.00 | 97 | 1010.4 |
| 20260509122046 | 73 | 160 | 1.0 | 2.0 | 0.00 | 0.00 | 0.00 | 97 | 1010.4 |
| 20260509121546 | 73 | 126 | 1.0 | 2.0 | 0.00 | 0.00 | 0.00 | 97 | 1010.5 |
| 20260509121049 | 73 | 100 | 0.0 | 1.0 | 0.00 | 0.00 | 0.00 | 97 | 1010.5 |
| 20260509120546 | 73 | 109 | 0.0 | 1.0 | 0.00 | 0.00 | 0.00 | 97 | 1010.5 |
| 20260509120045 | 73 | 94 | 1.0 | 2.0 | 0.00 | 0.00 | 0.00 | 97 | 1010.4 |
| 20260509115530 | 73 | 127 | 1.0 | 2.0 | 0.00 | 0.00 | 0.00 | 97 | 1010.4 |
| 20260509115032 | 73 | 293 | 1.0 | 2.0 | 0.00 | 0.00 | 0.00 | 97 | 1010.3 |
| 20260509114016 | 73 | 304 | 1.0 | 2.0 | 0.00 | 0.00 | 0.00 | 97 | 1010.2 |
| 20260509113516 | 73 | 0 | 1.0 | 2.0 | 0.00 | 0.00 | 0.00 | 97 | 1010.3 |
| 20260509113002 | 73 | 203 | 0.0 | 2.0 | 0.00 | 0.00 | 0.00 | 97 | 1010.3 |
| 20260509112501 | 73 | 290 | 0.0 | 2.0 | 0.00 | 0.00 | 0.00 | 97 | 1010.3 |
| 20260509112002 | 73 | 0 | 0.0 | 1.0 | 0.00 | 0.00 | 0.00 | 97 | 1010.3 |
| 20260509111446 | 73 | 0 | 0.0 | 2.0 | 0.00 | 0.00 | 0.00 | 97 | 1010.1 |
| 20260509110947 | 73 | 103 | 0.0 | 2.0 | 0.00 | 0.00 | 0.00 | 97 | 1010.2 |
| 20260509110447 | 73 | 67 | 1.0 | 2.0 | 0.00 | 0.00 | 0.00 | 97 | 1010.3 |
| 20260509105947 | 73 | 145 | 1.0 | 2.0 | 0.00 | 0.00 | 0.00 | 96 | 1010.3 |
| 20260509105447 | 73 | 179 | 0.0 | 2.0 | 0.00 | 0.00 | 0.00 | 96 | 1010.3 |
| 20260509104947 | 73 | 0 | 0.0 | 1.0 | 0.00 | 0.00 | 0.00 | 96 | 1010.4 |
| 20260509104445 | 73 | 0 | 0.0 | 1.0 | 0.00 | 0.00 | 0.00 | 96 | 1010.4 |
| 20260509103945 | 73 | 0 | 0.0 | 1.0 | 0.00 | 0.00 | 0.00 | 96 | 1010.3 |
| 20260509103445 | 73 | 0 | 0.0 | 1.0 | 0.00 | 0.00 | 0.00 | 96 | 1010.3 |
| 20260509102946 | 73 | 0 | 0.0 | 1.0 | 0.00 | 0.00 | 0.00 | 96 | 1010.2 |
| 20260509102445 | 73 | 0 | 0.0 | 2.0 | 0.00 | 0.00 | 0.00 | 96 | 1010.2 |
| 20260509101945 | 73 | 0 | 0.0 | 2.0 | 0.00 | 0.00 | 0.00 | 96 | 1010.3 |
| 20260509101435 | 73 | 238 | 1.0 | 2.0 | 0.00 | 0.00 | 0.00 | 96 | 1010.3 |
| 20260509100935 | 73 | 0 | 1.0 | 2.0 | 0.00 | 0.00 | 0.00 | 96 | 1010.2 |
| 20260509100436 | 73 | 83 | 0.0 | 1.0 | 0.00 | 0.00 | 0.00 | 96 | 1010.1 |
| 20260509095436 | 73 | 0 | 0.0 | 2.0 | 0.00 | 0.00 | 0.00 | 96 | 1009.9 |
| 20260509094935 | 73 | 0 | 0.0 | 3.0 | 0.00 | 0.00 | 0.00 | 96 | 1009.8 |
| 20260509093433 | 73 | 94 | 2.0 | 5.0 | 0.00 | 0.00 | 0.00 | 96 | 1009.6 |
| 20260509092933 | 73 | 103 | 1.0 | 2.0 | 0.00 | 0.00 | 0.00 | 96 | 1009.8 |
| 20260509092433 | 73 | 91 | 0.0 | 2.0 | 0.00 | 0.00 | 0.00 | 96 | 1010.0 |
| 20260509091934 | 73 | 69 | 0.0 | 2.0 | 0.00 | 0.00 | 0.00 | 96 | 1009.8 |
| 20260509091433 | 73 | 0 | 0.0 | 2.0 | 0.00 | 0.00 | 0.00 | 96 | 1009.8 |
| 20260509090933 | 73 | 6 | 1.0 | 2.0 | 0.00 | 0.00 | 0.00 | 96 | 1009.6 |
| 20260509090434 | 73 | 0 | 1.0 | 3.0 | 0.00 | 0.00 | 0.00 | 96 | 1009.4 |
| 20260509085933 | 73 | 124 | 1.0 | 3.0 | 0.00 | 0.00 | 0.00 | 96 | 1009.5 |
| 20260509085433 | 73 | 0 | 1.0 | 3.0 | 0.00 | 0.00 | 0.00 | 96 | 1009.8 |
| 20260509084934 | 73 | 104 | 1.0 | 2.0 | 0.00 | 0.00 | 0.00 | 96 | 1010.0 |
| 20260509084434 | 73 | 109 | 0.0 | 2.0 | 0.00 | 0.00 | 0.00 | 96 | 1010.0 |
| 20260509083933 | 73 | 0 | 0.0 | 1.0 | 0.00 | 0.00 | 0.00 | 96 | 1010.0 |
| 20260509083433 | 73 | 0 | 1.0 | 3.0 | 0.00 | 0.00 | 0.00 | 96 | 1010.0 |
| 20260509082931 | 73 | 63 | 1.0 | 3.0 | 0.00 | 0.00 | 0.00 | 96 | 1010.0 |
| 20260509082432 | 73 | 75 | 0.0 | 2.0 | 0.00 | 0.00 | 0.00 | 96 | 1010.0 |
| 20260509081428 | 73 | 88 | 1.0 | 2.0 | 0.00 | 0.00 | 0.00 | 96 | 1009.9 |
| 20260509080928 | 73 | 78 | 0.0 | 2.0 | 0.00 | 0.00 | 0.00 | 96 | 1009.8 |
| 20260509080428 | 73 | 0 | 1.0 | 3.0 | 0.00 | 0.00 | 0.00 | 96 | 1010.0 |
| 20260509075926 | 73 | 99 | 1.0 | 3.0 | 0.00 | 0.00 | 0.00 | 96 | 1009.9 |
| 20260509075425 | 73 | 67 | 1.0 | 3.0 | 0.00 | 0.00 | 0.00 | 96 | 1009.9 |
| 20260509074925 | 73 | 91 | 1.0 | 3.0 | 0.00 | 0.00 | 0.00 | 96 | 1009.8 |
| 20260509074425 | 73 | 0 | 0.0 | 2.0 | 0.00 | 0.00 | 0.00 | 96 | 1009.8 |
| 20260509073926 | 73 | 94 | 0.0 | 2.0 | 0.00 | 0.00 | 0.00 | 96 | 1009.8 |
| 20260509072925 | 73 | 93 | 1.0 | 3.0 | 0.00 | 0.00 | 0.00 | 96 | 1009.7 |
| 20260509072425 | 73 | 72 | 1.0 | 3.0 | 0.00 | 0.00 | 0.00 | 96 | 1009.9 |
| 20260509071926 | 73 | 137 | 1.0 | 3.0 | 0.00 | 0.00 | 0.00 | 96 | 1009.8 |
| 20260509070926 | 73 | 154 | 1.0 | 4.0 | 0.00 | 0.00 | 0.00 | 96 | 1009.7 |
| 20260509070425 | 73 | 122 | 1.0 | 4.0 | 0.00 | 0.00 | 0.00 | 96 | 1009.8 |
| 20260509065927 | 73 | 161 | 1.0 | 4.0 | 0.00 | 0.00 | 0.00 | 96 | 1009.9 |
| 20260509065426 | 73 | 155 | 2.0 | 4.0 | 0.00 | 0.00 | 0.00 | 96 | 1010.0 |
| 20260509064926 | 73 | 97 | 2.0 | 5.0 | 0.00 | 0.00 | 0.00 | 96 | 1009.8 |
| 20260509064423 | 73 | 92 | 2.0 | 5.0 | 0.00 | 0.00 | 0.00 | 96 | 1009.8 |
| 20260509063924 | 73 | 181 | 2.0 | 6.0 | 0.00 | 0.00 | 0.00 | 96 | 1009.9 |
| 20260509063423 | 73 | 115 | 2.0 | 6.0 | 0.00 | 0.00 | 0.00 | 96 | 1009.8 |
| 20260509062924 | 73 | 95 | 2.0 | 6.0 | 0.00 | 0.00 | 0.00 | 96 | 1009.8 |
| 20260509062423 | 73 | 89 | 2.0 | 6.0 | 0.00 | 0.00 | 0.00 | 96 | 1009.8 |
| 20260509061923 | 73 | 50 | 2.0 | 5.0 | 0.00 | 0.00 | 0.00 | 96 | 1009.9 |
| 20260509061423 | 73 | 196 | 2.0 | 6.0 | 0.00 | 0.00 | 0.00 | 96 | 1009.9 |
| 20260509060924 | 73 | 96 | 2.0 | 6.0 | 0.00 | 0.00 | 0.00 | 96 | 1009.8 |
| 20260509060423 | 73 | 252 | 2.0 | 6.0 | 0.00 | 0.00 | 0.00 | 95 | 1009.8 |
| 20260509055924 | 73 | 186 | 2.0 | 6.0 | 0.00 | 0.00 | 0.00 | 95 | 1009.8 |
| 20260509055423 | 73 | 212 | 2.0 | 6.0 | 0.00 | 0.00 | 0.00 | 95 | 1009.8 |
| 20260509054923 | 73 | 105 | 2.0 | 8.0 | 0.00 | 0.00 | 0.00 | 95 | 1009.9 |
| 20260509054425 | 73 | 156 | 3.0 | 8.0 | 0.00 | 0.00 | 0.00 | 95 | 1009.9 |
| 20260509053924 | 73 | 148 | 3.0 | 9.0 | 0.00 | 0.00 | 0.00 | 95 | 1010.0 |
| 20260509053424 | 73 | 160 | 3.0 | 9.0 | 0.00 | 0.00 | 0.00 | 95 | 1010.0 |
| 20260509052924 | 73 | 100 | 3.0 | 7.0 | 0.00 | 0.00 | 0.00 | 95 | 1010.0 |
| 20260509052424 | 73 | 82 | 3.0 | 8.0 | 0.00 | 0.00 | 0.00 | 95 | 1009.9 |
| 20260509051925 | 73 | 81 | 2.0 | 8.0 | 0.00 | 0.00 | 0.00 | 94 | 1009.9 |
| 20260509051422 | 73 | 104 | 2.0 | 5.0 | 0.00 | 0.00 | 0.00 | 94 | 1009.8 |
| 20260509050918 | 73 | 102 | 2.0 | 5.0 | 0.00 | 0.00 | 0.00 | 94 | 1009.8 |
| 20260509050418 | 73 | 117 | 2.0 | 6.0 | 0.00 | 0.00 | 0.00 | 94 | 1009.8 |
| 20260509045918 | 73 | 111 | 2.0 | 7.0 | 0.00 | 0.00 | 0.00 | 94 | 1009.8 |
| 20260509045418 | 73 | 133 | 2.0 | 7.0 | 0.00 | 0.00 | 0.00 | 94 | 1009.9 |
| 20260509044915 | 73 | 165 | 2.0 | 5.0 | 0.00 | 0.00 | 0.00 | 94 | 1010.0 |
| 20260509044416 | 73 | 75 | 2.0 | 6.0 | 0.00 | 0.00 | 0.00 | 94 | 1009.9 |
| 20260509043415 | 73 | 113 | 3.0 | 6.0 | 0.00 | 0.00 | 0.00 | 94 | 1010.0 |
| 20260509042915 | 73 | 118 | 2.0 | 6.0 | 0.00 | 0.00 | 0.00 | 94 | 1010.1 |
| 20260509042417 | 73 | 105 | 1.0 | 3.0 | 0.00 | 0.00 | 0.00 | 93 | 1010.1 |
| 20260509040916 | 73 | 126 | 2.0 | 5.0 | 0.00 | 0.00 | 0.00 | 93 | 1010.0 |
| 20260509040416 | 73 | 202 | 3.0 | 6.0 | 0.00 | 0.00 | 0.00 | 93 | 1010.0 |
| 20260509035415 | 73 | 105 | 3.0 | 6.0 | 0.00 | 0.00 | 0.00 | 93 | 1009.8 |
| 20260509034413 | 73 | 115 | 3.0 | 9.0 | 0.00 | 0.00 | 0.00 | 93 | 1009.9 |
| 20260509033914 | 73 | 119 | 2.0 | 6.0 | 0.00 | 0.00 | 0.00 | 93 | 1009.9 |
| 20260509033413 | 73 | 137 | 2.0 | 6.0 | 0.00 | 0.00 | 0.00 | 93 | 1009.9 |
| 20260509032913 | 73 | 115 | 2.0 | 5.0 | 0.00 | 0.00 | 0.00 | 93 | 1009.9 |
| 20260509032413 | 74 | 115 | 2.0 | 5.0 | 0.00 | 0.00 | 0.00 | 92 | 1009.8 |
| 20260509031913 | 74 | 108 | 1.0 | 4.0 | 0.00 | 0.00 | 0.00 | 92 | 1009.6 |
| 20260509031413 | 74 | 114 | 1.0 | 4.0 | 0.00 | 0.00 | 0.00 | 92 | 1009.6 |
| 20260509030914 | 74 | 137 | 2.0 | 4.0 | 0.00 | 0.00 | 0.00 | 91 | 1009.5 |
| 20260509030414 | 74 | 135 | 2.0 | 4.0 | 0.00 | 0.00 | 0.00 | 91 | 1009.3 |
| 20260509025914 | 74 | 76 | 2.0 | 6.0 | 0.00 | 0.00 | 0.00 | 91 | 1009.4 |
| 20260509025413 | 74 | 117 | 2.0 | 6.0 | 0.00 | 0.00 | 0.00 | 91 | 1009.3 |
| 20260509024914 | 74 | 0 | 1.0 | 4.0 | 0.00 | 0.00 | 0.00 | 90 | 1009.2 |
| 20260509024413 | 75 | 0 | 2.0 | 4.0 | 0.00 | 0.00 | 0.00 | 90 | 1009.2 |
| 20260509023914 | 75 | 140 | 2.0 | 4.0 | 0.00 | 0.00 | 0.00 | 90 | 1009.1 |
| 20260509023411 | 75 | 255 | 2.0 | 4.0 | 0.00 | 0.00 | 0.00 | 90 | 1009.1 |
| 20260509022911 | 75 | 120 | 2.0 | 4.0 | 0.00 | 0.00 | 0.00 | 90 | 1009.1 |
| 20260509022412 | 75 | 151 | 2.0 | 4.0 | 0.00 | 0.00 | 0.00 | 90 | 1009.0 |
| 20260509021908 | 75 | 127 | 1.0 | 4.0 | 0.00 | 0.00 | 0.00 | 89 | 1009.0 |
| 20260509021409 | 75 | 129 | 1.0 | 3.0 | 0.00 | 0.00 | 0.00 | 89 | 1008.9 |
| 20260509020908 | 75 | 127 | 1.0 | 3.0 | 0.00 | 0.00 | 0.00 | 89 | 1008.8 |
| 20260509020406 | 75 | 133 | 1.0 | 3.0 | 0.00 | 0.00 | 0.00 | 89 | 1008.8 |
| 20260509015905 | 75 | 88 | 1.0 | 3.0 | 0.00 | 0.00 | 0.00 | 88 | 1008.7 |
| 20260509015405 | 75 | 0 | 1.0 | 3.0 | 0.00 | 0.00 | 0.00 | 88 | 1008.5 |
| 20260509014902 | 76 | 0 | 1.0 | 2.0 | 0.00 | 0.00 | 0.00 | 88 | 1008.5 |
| 20260509014403 | 76 | 47 | 1.0 | 2.0 | 0.00 | 0.00 | 0.00 | 87 | 1008.4 |
| 20260509013903 | 76 | 124 | 1.0 | 3.0 | 0.00 | 0.00 | 0.00 | 87 | 1008.3 |
| 20260509013403 | 76 | 100 | 1.0 | 3.0 | 0.00 | 0.00 | 0.00 | 87 | 1008.4 |
| 20260509012903 | 76 | 107 | 1.0 | 3.0 | 0.00 | 0.00 | 0.00 | 87 | 1008.5 |
| 20260509012403 | 76 | 0 | 1.0 | 2.0 | 0.00 | 0.00 | 0.00 | 87 | 1008.4 |
| 20260509011402 | 77 | 0 | 0.0 | 3.0 | 0.00 | 0.00 | 0.00 | 86 | 1008.4 |
| 20260509010903 | 77 | 0 | 1.0 | 3.0 | 0.00 | 0.00 | 0.00 | 86 | 1008.4 |
| 20260509010402 | 77 | 0 | 1.0 | 3.0 | 0.00 | 0.00 | 0.00 | 85 | 1008.4 |
| 20260509005903 | 77 | 200 | 1.0 | 3.0 | 0.00 | 0.00 | 0.00 | 85 | 1008.4 |
| 20260509005403 | 77 | 100 | 1.0 | 4.0 | 0.00 | 0.00 | 0.00 | 84 | 1008.3 |
| 20260509004903 | 77 | 0 | 1.0 | 4.0 | 0.00 | 0.00 | 0.00 | 84 | 1008.2 |
| 20260509004400 | 78 | 20 | 1.0 | 4.0 | 0.00 | 0.00 | 0.00 | 84 | 1008.1 |
| 20260509003858 | 78 | 139 | 1.0 | 4.0 | 0.00 | 0.00 | 0.00 | 84 | 1008.1 |
| 20260509003357 | 78 | 83 | 1.0 | 4.0 | 0.00 | 0.00 | 0.00 | 84 | 1008.1 |
| 20260509002858 | 78 | 80 | 1.0 | 4.0 | 0.00 | 0.00 | 0.00 | 83 | 1008.2 |
| 20260509002357 | 78 | 98 | 1.0 | 3.0 | 0.00 | 0.00 | 0.00 | 83 | 1008.1 |
| 20260509001858 | 78 | 0 | 1.0 | 3.0 | 0.00 | 0.00 | 0.00 | 83 | 1008.0 |
| 20260508235858 | 78 | 127 | 2.0 | 5.0 | 0.00 | 0.00 | 0.00 | 82 | 1008.2 |
| 20260508235358 | 78 | 111 | 2.0 | 5.0 | 0.00 | 0.00 | 0.00 | 81 | 1008.1 |
| 20260508234858 | 78 | 141 | 2.0 | 4.0 | 0.00 | 0.00 | 0.00 | 81 | 1008.1 |
| 20260508234358 | 78 | 128 | 2.0 | 5.0 | 0.00 | 0.00 | 0.00 | 81 | 1008.2 |
| 20260508233858 | 79 | 110 | 2.0 | 5.0 | 0.00 | 0.00 | 0.00 | 81 | 1008.2 |
| 20260508232354 | 79 | 64 | 2.0 | 4.0 | 0.00 | 0.00 | 0.00 | 80 | 1008.2 |
| 20260508231853 | 79 | 105 | 2.0 | 4.0 | 0.00 | 0.00 | 0.00 | 80 | 1008.1 |
| 20260508231353 | 79 | 55 | 2.0 | 6.0 | 0.00 | 0.00 | 0.00 | 80 | 1008.1 |
| 20260508230353 | 79 | 110 | 2.0 | 6.0 | 0.00 | 0.00 | 0.00 | 79 | 1008.0 |
| 20260508225853 | 79 | 42 | 2.0 | 6.0 | 0.00 | 0.00 | 0.00 | 79 | 1008.1 |
| 20260508225354 | 79 | 81 | 2.0 | 4.0 | 0.00 | 0.00 | 0.00 | 80 | 1008.0 |